Year,Month,Day,Hour,Minute,Value (Times are PST for temperature in C)
2008,06,04,07,50,9.60
2008,06,04,07,51,9.60
2008,06,04,07,52,9.60
2008,06,04,07,53,9.60
2008,06,04,07,54,9.60
2008,06,04,07,55,9.70
2008,06,04,07,56,9.70
2008,06,04,07,57,9.70
2008,06,04,07,58,9.70
2008,06,04,07,59,9.70
2008,06,04,08,00,9.70
2008,06,04,08,01,9.80
2008,06,04,08,02,9.80
2008,06,04,08,03,9.80
2008,06,04,08,04,9.80
2008,06,04,08,05,9.80
2008,06,04,08,06,9.80
2008,06,04,08,07,9.80
2008,06,04,08,08,9.80
2008,06,04,08,09,9.80
2008,06,04,08,10,9.80
2008,06,04,08,11,9.80
2008,06,04,08,12,9.80
2008,06,04,08,13,9.90
2008,06,04,08,14,9.90
2008,06,04,08,15,9.90
2008,06,04,08,16,10.00
2008,06,04,08,17,10.10
2008,06,04,08,18,10.10
2008,06,04,08,19,10.20
2008,06,04,08,20,10.20
2008,06,04,08,21,10.20
2008,06,04,08,22,10.20
2008,06,04,08,23,10.20
2008,06,04,08,24,10.20
2008,06,04,08,25,10.30
2008,06,04,08,26,10.30
2008,06,04,08,27,10.40
2008,06,04,08,28,10.50
2008,06,04,08,29,10.50
2008,06,04,08,30,10.50
2008,06,04,08,31,10.40
2008,06,04,08,32,10.50
2008,06,04,08,33,10.50
2008,06,04,08,34,10.40
2008,06,04,08,35,10.50
2008,06,04,08,36,10.50
2008,06,04,08,37,10.50
2008,06,04,08,38,10.50
2008,06,04,08,39,10.60
2008,06,04,08,40,10.60
2008,06,04,08,41,10.60
2008,06,04,08,42,10.60
2008,06,04,08,43,10.60
2008,06,04,08,44,10.60
2008,06,04,08,45,10.60
2008,06,04,08,46,10.60
2008,06,04,08,47,10.60
2008,06,04,08,48,10.60
2008,06,04,08,49,10.70
2008,06,04,08,50,10.70
2008,06,04,08,51,10.80
2008,06,04,08,52,10.90
2008,06,04,08,53,11.00
2008,06,04,08,54,11.00
2008,06,04,08,55,11.10
2008,06,04,08,56,11.20
2008,06,04,08,57,11.20
2008,06,04,08,58,11.20
2008,06,04,08,59,11.20
2008,06,04,09,00,11.30
2008,06,04,09,01,11.30
2008,06,04,09,02,11.30
2008,06,04,09,03,11.40
2008,06,04,09,04,11.40
2008,06,04,09,05,11.40
2008,06,04,09,06,11.40
2008,06,04,09,07,11.30
2008,06,04,09,08,11.30
2008,06,04,09,09,11.30
2008,06,04,09,10,11.30
2008,06,04,09,11,11.30
2008,06,04,09,12,11.30
2008,06,04,09,13,11.30
2008,06,04,09,14,11.20
2008,06,04,09,15,11.20
2008,06,04,09,16,11.20
2008,06,04,09,17,11.20
2008,06,04,09,18,11.20
2008,06,04,09,19,11.20
2008,06,04,09,20,11.20
2008,06,04,09,21,11.20
2008,06,04,09,22,11.10
2008,06,04,09,23,11.10
2008,06,04,09,24,11.10
2008,06,04,09,25,11.10
2008,06,04,09,26,11.10
2008,06,04,09,27,11.10
2008,06,04,09,28,11.20
2008,06,04,09,29,11.30
2008,06,04,09,30,11.30
2008,06,04,09,31,11.40
2008,06,04,09,32,11.40
2008,06,04,09,33,11.40
2008,06,04,09,34,11.40
2008,06,04,09,35,11.50
2008,06,04,09,36,11.50
2008,06,04,09,37,11.60
2008,06,04,09,38,11.60
2008,06,04,09,39,11.60
2008,06,04,09,40,11.50
2008,06,04,09,41,11.50
2008,06,04,09,42,11.40
2008,06,04,09,43,11.40
2008,06,04,09,44,11.40
2008,06,04,09,45,11.40
2008,06,04,09,46,11.40
2008,06,04,09,47,11.40
2008,06,04,09,48,11.40
2008,06,04,09,49,11.50
2008,06,04,09,50,11.50
2008,06,04,09,51,11.50
2008,06,04,09,52,11.40
2008,06,04,09,53,11.40
2008,06,04,09,54,11.50
2008,06,04,09,55,11.50
2008,06,04,09,56,11.60
2008,06,04,09,57,11.60
2008,06,04,09,58,11.70
2008,06,04,09,59,11.80
2008,06,04,10,00,11.80
2008,06,04,10,01,11.90
2008,06,04,10,02,11.90
2008,06,04,10,03,12.00
2008,06,04,10,04,12.10
2008,06,04,10,05,12.20
2008,06,04,10,06,12.20
2008,06,04,10,07,12.30
2008,06,04,10,08,12.40
2008,06,04,10,09,12.40
2008,06,04,10,10,12.40
2008,06,04,10,11,12.40
2008,06,04,10,12,12.30
2008,06,04,10,13,12.20
2008,06,04,10,14,12.10
2008,06,04,10,15,12.00
2008,06,04,10,16,11.90
2008,06,04,10,17,11.80
2008,06,04,10,18,11.80
2008,06,04,10,19,11.70
2008,06,04,10,20,11.80
2008,06,04,10,21,11.80
2008,06,04,10,22,11.80
2008,06,04,10,23,11.80
2008,06,04,10,24,11.90
2008,06,04,10,25,11.90
2008,06,04,10,26,12.00
2008,06,04,10,27,12.10
2008,06,04,10,28,12.10
2008,06,04,10,29,12.20
2008,06,04,10,30,12.30
2008,06,04,10,31,12.30
2008,06,04,10,32,12.30
2008,06,04,10,33,12.30
2008,06,04,10,34,12.40
2008,06,04,10,35,12.40
2008,06,04,10,36,12.50
2008,06,04,10,37,12.60
2008,06,04,10,38,12.50
2008,06,04,10,39,12.50
2008,06,04,10,40,12.50
2008,06,04,10,41,12.40
2008,06,04,10,42,12.40
2008,06,04,10,43,12.50
2008,06,04,10,44,12.50
2008,06,04,10,45,12.40
2008,06,04,10,46,12.50
2008,06,04,10,47,12.50
2008,06,04,10,48,12.60
2008,06,04,10,49,12.70
2008,06,04,10,50,12.70
2008,06,04,10,51,12.70
2008,06,04,10,52,12.70
2008,06,04,10,53,12.70
2008,06,04,10,54,12.70
2008,06,04,10,55,12.70
2008,06,04,10,56,12.70
2008,06,04,10,57,12.70
2008,06,04,10,58,12.70
2008,06,04,10,59,12.80
2008,06,04,11,00,12.90
2008,06,04,11,01,12.90
2008,06,04,11,02,12.90
2008,06,04,11,03,12.90
2008,06,04,11,04,13.00
2008,06,04,11,05,13.10
2008,06,04,11,06,13.10
2008,06,04,11,07,13.10
2008,06,04,11,08,13.10
2008,06,04,11,09,13.10
2008,06,04,11,10,13.10
2008,06,04,11,11,13.20
2008,06,04,11,12,13.20
2008,06,04,11,13,13.30
2008,06,04,11,14,13.30
2008,06,04,11,15,13.30
2008,06,04,11,16,13.40
2008,06,04,11,17,13.40
2008,06,04,11,18,13.40
2008,06,04,11,19,13.40
2008,06,04,11,20,13.40
2008,06,04,11,21,13.40
2008,06,04,11,22,13.40
2008,06,04,11,23,13.40
2008,06,04,11,24,13.40
2008,06,04,11,25,13.40
2008,06,04,11,26,13.40
2008,06,04,11,27,13.40
2008,06,04,11,28,13.30
2008,06,04,11,29,13.30
2008,06,04,11,30,13.30
2008,06,04,11,31,13.40
2008,06,04,11,32,13.40
2008,06,04,11,33,13.50
2008,06,04,11,34,13.50
2008,06,04,11,35,13.60
2008,06,04,11,36,13.80
2008,06,04,11,37,13.90
2008,06,04,11,38,13.90
2008,06,04,11,39,13.80
2008,06,04,11,40,13.80
2008,06,04,11,41,13.80
2008,06,04,11,42,13.80
2008,06,04,11,43,13.90
2008,06,04,11,44,13.90
2008,06,04,11,45,13.90
2008,06,04,11,46,14.00
2008,06,04,11,47,14.00
2008,06,04,11,48,14.10
2008,06,04,11,49,14.00
2008,06,04,11,50,13.90
2008,06,04,11,51,13.80
2008,06,04,11,52,13.70
2008,06,04,11,53,13.60
2008,06,04,11,54,13.60
2008,06,04,11,55,13.60
2008,06,04,11,56,13.50
2008,06,04,11,57,13.50
2008,06,04,11,58,13.50
2008,06,04,11,59,13.60
2008,06,04,12,00,13.60
2008,06,04,12,01,13.60
2008,06,04,12,02,13.70
2008,06,04,12,03,13.80
2008,06,04,12,04,13.80
2008,06,04,12,05,13.80
2008,06,04,12,06,13.80
2008,06,04,12,07,13.90
2008,06,04,12,08,14.10
2008,06,04,12,09,14.30
2008,06,04,12,10,14.40
2008,06,04,12,11,14.60
2008,06,04,12,12,14.70
2008,06,04,12,13,14.80
2008,06,04,12,14,15.00
2008,06,04,12,15,15.00
2008,06,04,12,16,15.10
2008,06,04,12,17,15.20
2008,06,04,12,18,15.30
2008,06,04,12,19,15.30
2008,06,04,12,20,15.30
2008,06,04,12,21,15.20
2008,06,04,12,22,15.20
2008,06,04,12,23,15.20
2008,06,04,12,24,15.10
2008,06,04,12,25,15.00
2008,06,04,12,26,15.00
2008,06,04,12,27,15.00
2008,06,04,12,28,15.00
2008,06,04,12,29,15.00
2008,06,04,12,30,15.00
2008,06,04,12,31,14.80
2008,06,04,12,32,14.70
2008,06,04,12,33,14.60
2008,06,04,12,34,14.50
2008,06,04,12,35,14.50
2008,06,04,12,36,14.60
2008,06,04,12,37,14.70
2008,06,04,12,38,14.70
2008,06,04,12,39,14.80
2008,06,04,12,40,14.70
2008,06,04,12,41,14.70
2008,06,04,12,42,14.70
2008,06,04,12,43,14.80
2008,06,04,12,44,14.90
2008,06,04,12,45,15.00
2008,06,04,12,46,14.90
2008,06,04,12,47,14.80
2008,06,04,12,48,14.80
2008,06,04,12,49,14.80
2008,06,04,12,50,14.80
2008,06,04,12,51,14.90
2008,06,04,12,52,15.00
2008,06,04,12,53,15.00
2008,06,04,12,54,15.00
2008,06,04,12,55,15.20
2008,06,04,12,56,15.30
2008,06,04,12,57,15.40
2008,06,04,12,58,15.50
2008,06,04,12,59,15.50
2008,06,04,13,00,15.50
2008,06,04,13,01,15.40
2008,06,04,13,02,15.30
2008,06,04,13,03,15.00
2008,06,04,13,04,14.90
2008,06,04,13,05,14.70
2008,06,04,13,06,14.50
2008,06,04,13,07,14.50
2008,06,04,13,08,14.40
2008,06,04,13,09,14.50
2008,06,04,13,10,14.50
2008,06,04,13,11,14.60
2008,06,04,13,12,14.70
2008,06,04,13,13,14.60
2008,06,04,13,14,14.60
2008,06,04,13,15,14.50
2008,06,04,13,16,14.40
2008,06,04,13,17,14.40
2008,06,04,13,18,14.30
2008,06,04,13,19,14.30
2008,06,04,13,20,14.30
2008,06,04,13,21,14.30
2008,06,04,13,22,14.20
2008,06,04,13,23,14.10
2008,06,04,13,24,14.00
2008,06,04,13,25,13.80
2008,06,04,13,26,13.80
2008,06,04,13,27,13.80
2008,06,04,13,28,13.80
2008,06,04,13,29,13.80
2008,06,04,13,30,13.80
2008,06,04,13,31,13.70
2008,06,04,13,32,13.60
2008,06,04,13,33,13.50
2008,06,04,13,34,13.40
2008,06,04,13,35,13.40
2008,06,04,13,36,13.40
2008,06,04,13,37,13.40
2008,06,04,13,38,13.30
2008,06,04,13,39,13.30
2008,06,04,13,40,13.10
2008,06,04,13,41,13.00
2008,06,04,13,42,13.00
2008,06,04,13,43,12.90
2008,06,04,13,44,12.90
2008,06,04,13,45,12.80
2008,06,04,13,46,12.70
2008,06,04,13,47,12.80
2008,06,04,13,48,12.80
2008,06,04,13,49,12.80
2008,06,04,13,50,13.00
2008,06,04,13,51,13.00
2008,06,04,13,52,13.20
2008,06,04,13,53,13.30
2008,06,04,13,54,13.20
2008,06,04,13,55,13.20
2008,06,04,13,56,13.20
2008,06,04,13,57,13.30
2008,06,04,13,58,13.40
2008,06,04,13,59,13.40
2008,06,04,14,00,13.50
2008,06,04,14,01,13.60
2008,06,04,14,02,13.60
2008,06,04,14,03,13.60
2008,06,04,14,04,13.60
2008,06,04,14,05,13.50
2008,06,04,14,06,13.40
2008,06,04,14,07,13.30
2008,06,04,14,08,13.20
2008,06,04,14,09,13.20
2008,06,04,14,10,13.30
2008,06,04,14,11,13.20
2008,06,04,14,12,13.10
2008,06,04,14,13,13.00
2008,06,04,14,14,12.80
2008,06,04,14,15,12.80
2008,06,04,14,16,12.80
2008,06,04,14,17,12.80
2008,06,04,14,18,12.70
2008,06,04,14,19,12.80
2008,06,04,14,20,12.80
2008,06,04,14,21,12.90
2008,06,04,14,22,13.00
2008,06,04,14,23,13.00
2008,06,04,14,24,13.10
2008,06,04,14,25,13.10
2008,06,04,14,26,13.10
2008,06,04,14,27,13.20
2008,06,04,14,28,13.30
2008,06,04,14,29,13.30
2008,06,04,14,30,13.30
2008,06,04,14,31,13.40
2008,06,04,14,32,13.40
2008,06,04,14,33,13.40
2008,06,04,14,34,13.40
2008,06,04,14,35,13.30
2008,06,04,14,36,13.20
2008,06,04,14,37,13.20
2008,06,04,14,38,13.10
2008,06,04,14,39,13.20
2008,06,04,14,40,13.10
2008,06,04,14,41,13.10
2008,06,04,14,42,13.10
2008,06,04,14,43,13.10
2008,06,04,14,44,13.10
2008,06,04,14,45,13.20
2008,06,04,14,46,13.30
2008,06,04,14,47,13.40
2008,06,04,14,48,13.40
2008,06,04,14,49,13.60
2008,06,04,14,50,13.70
2008,06,04,14,51,13.70
2008,06,04,14,52,13.80
2008,06,04,14,53,13.80
2008,06,04,14,54,13.80
2008,06,04,14,55,13.80
2008,06,04,14,56,14.00
2008,06,04,14,57,14.10
2008,06,04,14,58,14.10
2008,06,04,14,59,14.10
2008,06,04,15,00,14.20
2008,06,04,15,01,14.30
2008,06,04,15,02,14.50
2008,06,04,15,03,14.50
2008,06,04,15,04,14.70
2008,06,04,15,05,14.70
2008,06,04,15,06,14.80
2008,06,04,15,07,14.90
2008,06,04,15,08,15.00
2008,06,04,15,09,15.00
2008,06,04,15,10,15.00
2008,06,04,15,11,15.00
2008,06,04,15,12,15.00
2008,06,04,15,13,15.00
2008,06,04,15,14,15.00
2008,06,04,15,15,14.90
2008,06,04,15,16,14.80
2008,06,04,15,17,14.80
2008,06,04,15,18,14.80
2008,06,04,15,19,14.70
2008,06,04,15,20,14.70
2008,06,04,15,21,14.60
2008,06,04,15,22,14.60
2008,06,04,15,23,14.60
2008,06,04,15,24,14.60
2008,06,04,15,25,14.60
2008,06,04,15,26,14.60
2008,06,04,15,27,14.60
2008,06,04,15,28,14.70
2008,06,04,15,29,14.70
2008,06,04,15,30,14.80
2008,06,04,15,31,14.80
2008,06,04,15,32,14.70
2008,06,04,15,33,14.60
2008,06,04,15,34,14.60
2008,06,04,15,35,14.70
2008,06,04,15,36,14.80
2008,06,04,15,37,14.90
2008,06,04,15,38,15.00
2008,06,04,15,39,15.00
2008,06,04,15,40,15.20
2008,06,04,15,41,15.40
2008,06,04,15,42,15.50
2008,06,04,15,43,15.60
2008,06,04,15,44,15.60
2008,06,04,15,45,15.60
2008,06,04,15,46,15.50
2008,06,04,15,47,15.40
2008,06,04,15,48,15.30
2008,06,04,15,49,15.10
2008,06,04,15,50,15.00
2008,06,04,15,51,15.00
2008,06,04,15,52,15.00
2008,06,04,15,53,15.00
2008,06,04,15,54,15.00
2008,06,04,15,55,15.00
2008,06,04,15,56,15.00
2008,06,04,15,57,15.00
2008,06,04,15,58,15.00
2008,06,04,15,59,15.00
2008,06,04,16,00,15.00
2008,06,04,16,01,15.00
2008,06,04,16,02,15.00
2008,06,04,16,03,15.00
2008,06,04,16,04,15.10
2008,06,04,16,05,15.10
2008,06,04,16,06,15.10
2008,06,04,16,07,15.00
2008,06,04,16,08,15.00
2008,06,04,16,09,15.00
2008,06,04,16,10,15.00
2008,06,04,16,11,15.00
2008,06,04,16,12,15.00
2008,06,04,16,13,15.10
2008,06,04,16,14,15.20
2008,06,04,16,15,15.20
2008,06,04,16,16,15.30
2008,06,04,16,17,15.30
2008,06,04,16,18,15.40
2008,06,04,16,19,15.40
2008,06,04,16,20,15.50
2008,06,04,16,21,15.50
2008,06,04,16,22,15.60
2008,06,04,16,23,15.60
2008,06,04,16,24,15.70
2008,06,04,16,25,15.70
2008,06,04,16,26,15.60
2008,06,04,16,27,15.50
2008,06,04,16,28,15.40
2008,06,04,16,29,15.20
2008,06,04,16,30,15.00
2008,06,04,16,31,15.00
2008,06,04,16,32,15.00
2008,06,04,16,33,15.00
2008,06,04,16,34,15.00
2008,06,04,16,35,14.90
2008,06,04,16,36,15.00
2008,06,04,16,37,15.00
2008,06,04,16,38,15.00
2008,06,04,16,39,15.00
2008,06,04,16,40,15.00
2008,06,04,16,41,15.00
2008,06,04,16,42,15.00
2008,06,04,16,43,15.00
2008,06,04,16,44,14.90
2008,06,04,16,45,14.80
2008,06,04,16,46,14.80
2008,06,04,16,47,14.70
2008,06,04,16,48,14.60
2008,06,04,16,49,14.50
2008,06,04,16,50,14.50
2008,06,04,16,51,14.40
2008,06,04,16,52,14.40
2008,06,04,16,53,14.40
2008,06,04,16,54,14.40
2008,06,04,16,55,14.40
2008,06,04,16,56,14.40
2008,06,04,16,57,14.40
2008,06,04,16,58,14.40
2008,06,04,16,59,14.50
2008,06,04,17,00,14.50
2008,06,04,17,01,14.50
2008,06,04,17,02,14.50
2008,06,04,17,03,14.50
2008,06,04,17,04,14.40
2008,06,04,17,05,14.50
2008,06,04,17,06,14.50
2008,06,04,17,07,14.50
2008,06,04,17,08,14.50
2008,06,04,17,09,14.50
2008,06,04,17,10,14.50
2008,06,04,17,11,14.50
2008,06,04,17,12,14.60
2008,06,04,17,13,14.60
2008,06,04,17,14,14.60
2008,06,04,17,15,14.70
2008,06,04,17,16,14.70
2008,06,04,17,17,14.70
2008,06,04,17,18,14.70
2008,06,04,17,19,14.80
2008,06,04,17,20,14.80
2008,06,04,17,21,14.70
2008,06,04,17,22,14.70
2008,06,04,17,23,14.70
2008,06,04,17,24,14.70
2008,06,04,17,25,14.70
2008,06,04,17,26,14.70
2008,06,04,17,27,14.70
2008,06,04,17,28,14.60
2008,06,04,17,29,14.60
2008,06,04,17,30,14.60
2008,06,04,17,31,14.60
2008,06,04,17,32,14.60
2008,06,04,17,33,14.60
2008,06,04,17,34,14.60
2008,06,04,17,35,14.60
2008,06,04,17,36,14.60
2008,06,04,17,37,14.60
2008,06,04,17,38,14.60
2008,06,04,17,39,14.60
2008,06,04,17,40,14.50
2008,06,04,17,41,14.50
2008,06,04,17,42,14.50
2008,06,04,17,43,14.40
2008,06,04,17,44,14.40
2008,06,04,17,45,14.30
2008,06,04,17,46,14.20
2008,06,04,17,47,14.10
2008,06,04,17,48,14.10
2008,06,04,17,49,14.10
2008,06,04,17,50,14.00
2008,06,04,17,51,13.90
2008,06,04,17,52,13.80
2008,06,04,17,53,13.70
2008,06,04,17,54,13.60
2008,06,04,17,55,13.60
2008,06,04,17,56,13.50
2008,06,04,17,57,13.50
2008,06,04,17,58,13.50
2008,06,04,17,59,13.60
2008,06,04,18,00,13.60
2008,06,04,18,01,13.70
2008,06,04,18,02,13.80
2008,06,04,18,03,13.80
2008,06,04,18,04,13.90
2008,06,04,18,05,13.90
2008,06,04,18,06,13.90
2008,06,04,18,07,14.00
2008,06,04,18,08,14.00
2008,06,04,18,09,14.00
2008,06,04,18,10,13.90
2008,06,04,18,11,13.90
2008,06,04,18,12,13.90
2008,06,04,18,13,13.80
2008,06,04,18,14,13.80
2008,06,04,18,15,13.70
2008,06,04,18,16,13.70
2008,06,04,18,17,13.70
2008,06,04,18,18,13.70
2008,06,04,18,19,13.70
2008,06,04,18,20,13.70
2008,06,04,18,21,13.70
2008,06,04,18,22,13.70
2008,06,04,18,23,13.80
2008,06,04,18,24,13.90
2008,06,04,18,25,13.90
2008,06,04,18,26,13.90
2008,06,04,18,27,13.90
2008,06,04,18,28,14.00
2008,06,04,18,29,14.00
2008,06,04,18,30,14.10
2008,06,04,18,31,14.20
2008,06,04,18,32,14.20
2008,06,04,18,33,14.30
2008,06,04,18,34,14.30
2008,06,04,18,35,14.30
2008,06,04,18,36,14.30
2008,06,04,18,37,14.30
2008,06,04,18,38,14.30
2008,06,04,18,39,14.30
2008,06,04,18,40,14.30
2008,06,04,18,41,14.30
2008,06,04,18,42,14.20
2008,06,04,18,43,14.20
2008,06,04,18,44,14.20
2008,06,04,18,45,14.10
2008,06,04,18,46,14.10
2008,06,04,18,47,14.10
2008,06,04,18,48,14.00
2008,06,04,18,49,14.00
2008,06,04,18,50,14.00
2008,06,04,18,51,14.00
2008,06,04,18,52,14.00
2008,06,04,18,53,14.00
2008,06,04,18,54,13.90
2008,06,04,18,55,14.00
2008,06,04,18,56,13.90
2008,06,04,18,57,13.90
2008,06,04,18,58,13.90
2008,06,04,18,59,13.90
2008,06,04,19,00,13.80
2008,06,04,19,01,13.70
2008,06,04,19,02,13.60
2008,06,04,19,03,13.40
2008,06,04,19,04,13.20
2008,06,04,19,05,13.20
2008,06,04,19,06,13.10
2008,06,04,19,07,13.00
2008,06,04,19,08,13.00
2008,06,04,19,09,13.00
2008,06,04,19,10,12.90
2008,06,04,19,11,12.90
2008,06,04,19,12,12.90
2008,06,04,19,13,12.90
2008,06,04,19,14,12.90
2008,06,04,19,15,12.90
2008,06,04,19,16,12.90
2008,06,04,19,17,12.90
2008,06,04,19,18,12.90
2008,06,04,19,19,12.90
2008,06,04,19,20,12.90
2008,06,04,19,21,12.90
2008,06,04,19,22,12.90
